Flag for U.S.A. Weather past 2 weeks in Sacramento, California, U.S.A.

Now
83 °F

Sunny.


Feels Like: 84 °F
Forecast: 64 / 85 °F
Wind: 16 mph from Southwest

Location: Sacramento Executive Airport

Current Time: Aug 29, 2015 at 2:29:15 PM

Latest Report: Aug 29, 2015 at 1:53 PM


Visibility: 10 mi

Pressure: 29.96 "Hg

Humidity: 51%

Dew point: 63 °F

Location of SacramentoLocation

Historic Weather in Sacramento — Graph

°F

Sacramento temperature yesterday

Maximum temperature yesterday: 100 °F (at 3:53 PM)
Minimum temperature yesterday: 66 °F (at 6:53 AM)
Average temperature yesterday: 82 °F

Past Weeks' High & Low Weather Summary

 TemperatureHumidityPressure
High104 °F (Aug 16, 3:53 PM)90% (Aug 21, 6:53 AM)30.02 "Hg (Aug 21, 6:53 AM)
Low58 °F (Aug 22, 6:53 AM)7% (Aug 16, 5:53 PM)29.73 "Hg (Aug 17, 5:53 PM)
Average76 °F50%29.88 "Hg
* Reported Aug 14 12:53 PM — Aug 29 12:53 PM, Sacramento, Weather by CustomWeather, © 2015

Note: Actual official high and low records may vary slightly from our data, if they occured in-between our weather recording intervals... More about our weather records

Advertising

Sacramento weather history for previous 24 hours

 ConditionsComfort  
Time TempWeatherWind HumidityBarometerVisibility
12:53 PM
Sat, Aug 29
81 °FPassing clouds.15 mph56%29.97 "Hg10 mi
11:53 AM79 °FSunny.9 mph60%29.98 "Hg10 mi
10:53 AM78 °FSunny.9 mph60%29.97 "Hg10 mi
9:53 AM74 °FSunny.8 mph69%29.97 "Hg10 mi
8:53 AM72 °FSunny.8 mph73%29.96 "Hg10 mi
7:53 AM69 °FPassing clouds.7 mph79%29.96 "Hg10 mi
6:53 AM68 °FPassing clouds.6 mph78%29.94 "Hg10 mi
5:53 AM68 °FPassing clouds.8 mph78%29.92 "Hg10 mi
4:53 AM68 °FClear.6 mph78%29.90 "Hg10 mi
3:53 AM68 °FClear.13 mph82%29.89 "Hg10 mi
2:53 AM69 °FClear.8 mph79%29.88 "Hg10 mi
1:53 AM70 °FClear.13 mph76%29.86 "Hg10 mi
11:53 PM
Fri, Aug 28
72 °FClear.9 mph68%29.85 "Hg10 mi
10:53 PM74 °FClear.8 mph62%29.83 "Hg10 mi
9:53 PM76 °FClear.12 mph56%29.81 "Hg10 mi
8:53 PM80 °FClear.16 mph45%29.80 "Hg10 mi
7:53 PM85 °FSunny.10 mph32%29.78 "Hg10 mi
6:53 PM91 °FSunny.9 mph28%29.77 "Hg10 mi
5:53 PM94 °FSunny.12 mph22%29.78 "Hg10 mi
4:53 PM100 °FSunny.15 mph16%29.78 "Hg10 mi
3:53 PM100 °FSunny.9 mph16%29.79 "Hg10 mi
2:53 PM99 °FSunny.9 mph18%29.82 "Hg10 mi
Weather by CustomWeather, © 2015

See weather overviewHow to use our weather pages